COSMOS 1328

Satellite information

Favourite Embed

Satellite Type and Status

PAYLOADIN ORBIT

Key statistics

Satellite COSMOS 1328 at a glance.

Uptime

16037

Days in orbit

Revolutions

≈ 15.3

Per day

Orbit

LEO

Low Earth Orbit

Inclination

82.5

Latest

Satellite identification and parameters

Extended collection of information and parameters for COSMOS 1328.

Object identification

Identified? True

Debris? False

Object name: COSMOS 1328

International designator: 1981-117A

Object number (NORAD): 12987

Object ID (CCSDS): 12987

Country: COMMONWEALTH OF INDEPENDENT STATES (CIS)

Current information (Y/N): Y

RCS size: LARGE

Orbital parameters

Period: 94.101 minutes

Inclination: 82.4896 deg

SMA: 6853.125 km

Apoapsis: 482.351 km

Periapsis: 467.629 km

RAAN: 123.0795 deg

Eccentricy: 0.00107415

Argument of periapsis: 288.0137 deg

Mean anomaly: 71.9932 deg

Mean motion: 15.30276037 rev/day

Mean motion (dot): 0.00013688 rev/day2

B* drag term: 0.0004653601 1/REarth

Two-line elements (TLE)

Creation date: Oct. 30, 2025, 3:32 a.m.

Reference frame: TEME

Reference center: EARTH

Epoch: Oct. 29, 2025, 10:13 p.m. UTC

TLE line 0: 0 COSMOS 1328

TLE line 1: 1 12987U 81117A 25302.92585359 .00013688 00000-0 46536-3 0 9996

TLE line 2: 2 12987 82.4896 123.0795 0010741 288.0137 71.9932 15.30276037394039

Live tracking on map

Real-time ground track for satellite COSMOS 1328.

In-orbit conjunctions

A list of the most updated potential collisions computed for object COSMOS 1328.

Target Orbit TCA Probability of collision Miss distance Type
OBJECT J SSO 2025-09-13 11:08:33 0.0002025952 271.0 (m) UNKNOWN
NOAA 16 DEB SSO 2025-03-02 05:28:10 0.0001093354 550.0 (m) DEBRIS
SL-12 R/B(AUX MOTOR) MEO 2025-01-29 12:20:33 0.0002282202 601.0 (m) ROCKET BODY
CZ-6A DEB SSO 2024-10-10 14:12:40 0.0002490053 212.0 (m) DEBRIS

Associated space launch

Tselina-D satellites provided detailed observation of radio sources detected by the smaller Tselina-O satellites as part of the Tselina ELINT system.

COSMOS 1328 was lifted into orbit during the mission ‘Tsiklon-3 | Tselina-D 32’, on board a Tsiklon-3 space rocket.

The launch took place on Dec. 3, 1981, 11:47 a.m. from 32/1.

For more information about the launch, click the button.

Launch to space Tsiklon-3 | Tselina-D 32
Tsiklon-3 | Tselina-D 32

Agency: N/A

Status: Launch Successful

Launch date: Dec. 3, 1981, 11:47 a.m. UTC

Rocket: Tsiklon-3

Launch pad: 32/1

Location: Plesetsk Cosmodrome, Russian Federation

...

Latest news about this satellite

There are no fresh news available about this satellite. Check back as we update our databases every day.


Newsletter sign-up

Weekly statistics, charts and insights to help you stay on top of the space industry.